When you browse on this site, cookies collect data to enhance your experience and personalize the content and advertising you see.
Visit our Privacy Policy to learn more. By continuing to use the site, you agree to this use of cookies and data.
  • In Czech Republic
  • List of Countries
  • For 7 days
  • Water Temperature
  • Weather Map
  • Weather Widgets
  • user-avatar
    Login

    Hourly Weather Uige

    Today, 25 February, Tuesday

    Time Temperature Precipitation Wind Pressure Humidity
    00:00 +23°C° 0 mm 1 mps 690 mmHg 79%
    01:00 +23°C° 0 mm 1 mps 690 mmHg 81%
    02:00 +23°C° 0 mm 1 mps 690 mmHg 80%
    03:00 +21°C° 0 mm 0 mps 690 mmHg 78%
    04:00 +21°C° 0 mm 0 mps 689 mmHg 77%
    05:00 +21°C° 0 mm 0 mps 690 mmHg 78%
    06:00 +21°C° 0 mm 0 mps 690 mmHg 79%
    07:00 +21°C° 0 mm 0 mps 690 mmHg 81%
    08:00 +24°C° 0 mm 0 mps 691 mmHg 73%
    09:00 +26°C° 0 mm 0 mps 692 mmHg 66%
    10:00 +29°C° 0 mm 0 mps 692 mmHg 58%
    11:00 +30°C° 0 mm 0 mps 692 mmHg 54%
    12:00 +33°C° 0 mm 1 mps 691 mmHg 51%
    13:00 +33°C° 0 mm 1 mps 691 mmHg 47%
    14:00 +32°C° 0.3 mm 1 mps 690 mmHg 56%
    15:00 +31°C° 0.3 mm 1 mps 689 mmHg 65%
    16:00 +29°C° 0.3 mm 1 mps 688 mmHg 74%
    17:00 +27°C° 1 mm 1 mps 688 mmHg 80%
    18:00 +26°C° 1 mm 1 mps 688 mmHg 87%
    19:00 +22°C° 1 mm 0 mps 688 mmHg 93%
    20:00 +22°C° 0 mm 0 mps 689 mmHg 94%
    21:00 +21°C° 0 mm 0 mps 690 mmHg 94%
    22:00 +21°C° 0 mm 0 mps 690 mmHg 95%
    23:00 +21°C° 0.1 mm 0 mps 690 mmHg 96%

    Tomorrow, 26 February, Wednesday

    Time Temperature Precipitation Wind Pressure Humidity
    00:00 +23°C° 0.1 mm 1 mps 690 mmHg 97%
    01:00 +23°C° 0.1 mm 1 mps 690 mmHg 98%
    02:00 +23°C° 0.3 mm 1 mps 690 mmHg 98%
    03:00 +23°C° 0.3 mm 1 mps 689 mmHg 98%
    04:00 +23°C° 0.3 mm 1 mps 689 mmHg 98%
    05:00 +23°C° 0 mm 1 mps 690 mmHg 98%
    06:00 +21°C° 0 mm 0 mps 690 mmHg 98%
    07:00 +21°C° 0 mm 0 mps 690 mmHg 97%
    08:00 +23°C° 0.1 mm 0 mps 691 mmHg 88%
    09:00 +25°C° 0.1 mm 0 mps 691 mmHg 79%
    10:00 +30°C° 0.1 mm 1 mps 692 mmHg 70%
    11:00 +31°C° 0.2 mm 1 mps 691 mmHg 64%
    12:00 +32°C° 0.2 mm 1 mps 691 mmHg 58%
    13:00 +33°C° 0.2 mm 1 mps 690 mmHg 52%
    14:00 +32°C° 0.4 mm 2 mps 689 mmHg 58%
    15:00 +31°C° 0.4 mm 2 mps 689 mmHg 64%
    16:00 +30°C° 0.4 mm 2 mps 688 mmHg 71%
    17:00 +28°C° 0.4 mm 2 mps 688 mmHg 79%
    18:00 +26°C° 0.4 mm 1 mps 689 mmHg 86%
    19:00 +24°C° 0.4 mm 1 mps 689 mmHg 94%
    20:00 +24°C° 0 mm 1 mps 689 mmHg 95%
    21:00 +21°C° 0 mm 0 mps 690 mmHg 96%
    22:00 +21°C° 0 mm 0 mps 690 mmHg 97%
    23:00 +21°C° 0 mm 0 mps 690 mmHg 97%

    Day after tomorrow, 27 February, Thursday

    Time Temperature Precipitation Wind Pressure Humidity
    00:00 +20°C° 0 mm 0 mps 690 mmHg 97%
    01:00 +20°C° 0 mm 0 mps 690 mmHg 98%
    02:00 +20°C° 0 mm 0 mps 690 mmHg 98%
    03:00 +20°C° 0 mm 0 mps 689 mmHg 98%
    04:00 +20°C° 0 mm 0 mps 689 mmHg 98%
    05:00 +20°C° 0 mm 0 mps 690 mmHg 98%
    06:00 +20°C° 0 mm 0 mps 690 mmHg 97%
    07:00 +20°C° 0 mm 0 mps 691 mmHg 97%
    08:00 +22°C° 0 mm 0 mps 691 mmHg 91%
    09:00 +23°C° 0 mm 0 mps 692 mmHg 85%
    10:00 +27°C° 0 mm 1 mps 692 mmHg 79%
    11:00 +28°C° 0.1 mm 1 mps 692 mmHg 71%
    12:00 +30°C° 0.1 mm 1 mps 691 mmHg 64%
    13:00 +31°C° 0.1 mm 1 mps 691 mmHg 56%
    14:00 +31°C° 0.1 mm 2 mps 690 mmHg 58%
    15:00 +31°C° 0.1 mm 2 mps 690 mmHg 60%
    16:00 +30°C° 0.1 mm 2 mps 689 mmHg 61%
    17:00 +28°C° 0 mm 2 mps 689 mmHg 70%
    18:00 +26°C° 0 mm 1 mps 689 mmHg 78%
    19:00 +24°C° 0 mm 1 mps 690 mmHg 86%
    20:00 +22°C° 0 mm 0 mps 690 mmHg 88%
    21:00 +21°C° 0 mm 0 mps 690 mmHg 89%
    22:00 +21°C° 0 mm 0 mps 691 mmHg 90%
    23:00 +20°C° 0 mm 0 mps 691 mmHg 92%

    28 February, Friday

    Time Temperature Precipitation Wind Pressure Humidity
    00:00 +22°C° 0 mm 1 mps 690 mmHg 93%
    01:00 +22°C° 0 mm 1 mps 690 mmHg 95%
    02:00 +21°C° 0 mm 1 mps 690 mmHg 96%
    03:00 +21°C° 0 mm 1 mps 690 mmHg 97%
    04:00 +19°C° 0 mm 0 mps 689 mmHg 98%
    05:00 +21°C° 0 mm 1 mps 690 mmHg 96%
    06:00 +22°C° 0 mm 1 mps 690 mmHg 95%
    07:00 +22°C° 0 mm 1 mps 691 mmHg 93%
    08:00 +22°C° 0 mm 0 mps 691 mmHg 88%
    09:00 +23°C° 0 mm 0 mps 692 mmHg 82%
    10:00 +25°C° 0 mm 0 mps 692 mmHg 77%
    11:00 +26°C° 0 mm 0 mps 692 mmHg 72%
    12:00 +29°C° 0 mm 1 mps 691 mmHg 67%
    13:00 +30°C° 0 mm 1 mps 691 mmHg 62%
    14:00 +30°C° 0.2 mm 1 mps 690 mmHg 64%
    15:00 +29°C° 0.2 mm 1 mps 689 mmHg 66%
    16:00 +29°C° 0.2 mm 1 mps 689 mmHg 68%
    17:00 +27°C° 0.1 mm 1 mps 689 mmHg 76%
    18:00 +25°C° 0.1 mm 1 mps 689 mmHg 83%
    19:00 +24°C° 0.1 mm 1 mps 690 mmHg 90%
    20:00 +21°C° 0.3 mm 0 mps 690 mmHg 93%
    21:00 +21°C° 0.3 mm 0 mps 690 mmHg 95%
    22:00 +21°C° 0.3 mm 0 mps 691 mmHg 97%
    23:00 +21°C° 0.2 mm 0 mps 690 mmHg 97%

    29 February, Saturday

    Time Temperature Precipitation Wind Pressure Humidity
    00:00 +21°C° 0.2 mm 0 mps 690 mmHg 97%
    01:00 +21°C° 0.2 mm 0 mps 690 mmHg 97%
    02:00 +20°C° 0 mm 0 mps 690 mmHg 97%
    03:00 +20°C° 0 mm 0 mps 690 mmHg 97%
    04:00 +20°C° 0 mm 0 mps 689 mmHg 97%
    05:00 +20°C° 0 mm 0 mps 690 mmHg 96%
    06:00 +20°C° 0 mm 0 mps 690 mmHg 96%
    07:00 +20°C° 0 mm 0 mps 691 mmHg 95%
    08:00 +22°C° 0 mm 0 mps 692 mmHg 88%
    09:00 +26°C° 0 mm 1 mps 692 mmHg 80%
    10:00 +27°C° 0 mm 1 mps 693 mmHg 72%
    11:00 +28°C° 0.1 mm 1 mps 693 mmHg 67%
    12:00 +29°C° 0.1 mm 2 mps 692 mmHg 62%
    13:00 +30°C° 0.1 mm 2 mps 692 mmHg 57%
    14:00 +28°C° 0.6 mm 2 mps 692 mmHg 69%
    15:00 +26°C° 0.6 mm 2 mps 691 mmHg 80%
    16:00 +24°C° 0.6 mm 2 mps 691 mmHg 91%
    17:00 +23°C° 1 mm 1 mps 691 mmHg 93%
    18:00 +23°C° 1 mm 1 mps 691 mmHg 94%
    19:00 +20°C° 1 mm 0 mps 692 mmHg 96%
    20:00 +22°C° 0 mm 1 mps 692 mmHg 96%
    21:00 +22°C° 0 mm 1 mps 692 mmHg 96%
    22:00 +22°C° 0 mm 1 mps 692 mmHg 97%
    23:00 +22°C° 0 mm 1 mps 691 mmHg 96%

    1 March, Sunday

    Time Temperature Precipitation Wind Pressure Humidity
    00:00 +22°C° 0 mm 1 mps 691 mmHg 95%
    01:00 +22°C° 0 mm 1 mps 691 mmHg 94%
    02:00 +22°C° 0 mm 1 mps 691 mmHg 94%
    03:00 +21°C° 0 mm 1 mps 690 mmHg 94%
    04:00 +19°C° 0 mm 0 mps 690 mmHg 94%
    05:00 +20°C° 0 mm 0 mps 691 mmHg 93%
    06:00 +20°C° 0 mm 0 mps 691 mmHg 93%
    07:00 +20°C° 0 mm 0 mps 691 mmHg 92%
    08:00 +21°C° 0 mm 0 mps 692 mmHg 86%
    09:00 +25°C° 0 mm 1 mps 692 mmHg 80%
    10:00 +26°C° 0 mm 1 mps 693 mmHg 75%
    11:00 +27°C° 0 mm 1 mps 692 mmHg 71%
    12:00 +26°C° 0 mm 0 mps 692 mmHg 67%
    13:00 +27°C° 0 mm 0 mps 691 mmHg 63%
    14:00 +27°C° 0 mm 0 mps 691 mmHg 64%
    15:00 +29°C° 0 mm 1 mps 690 mmHg 64%
    16:00 +29°C° 0 mm 1 mps 689 mmHg 64%
    17:00 +25°C° 0 mm 0 mps 689 mmHg 69%
    18:00 +24°C° 0 mm 0 mps 689 mmHg 73%
    19:00 +22°C° 0 mm 0 mps 689 mmHg 78%
    20:00 +22°C° 0 mm 0 mps 690 mmHg 78%
    21:00 +23°C° 0 mm 1 mps 690 mmHg 79%
    22:00 +22°C° 0 mm 1 mps 691 mmHg 79%
    23:00 +22°C° 0 mm 1 mps 690 mmHg 81%
    Show more